When you browse on this site, cookies collect data to enhance your experience and personalize the content and advertising you see.
Visit our Privacy Policy to learn more. By continuing to use the site, you agree to this use of cookies and data.
  • Em Portugal
  • Lista de países
  • Para 7 dias
  • Temperatura da água
  • Mapas de satélite
  • Mapa do tempo
  • Widgets de tempo
  • user-avatar
    Iniciar Sessão

    Previsão horária em Castlebar

    Hoje, 19 Janeiro, Sábado

    Tempo Temperatura Precipitação Vento Pressão Humidade
    00:00 +6°C° 0 mm 1 m/s 747 mmHg 97%
    01:00 +6°C° 0 mm 1 m/s 747 mmHg 96%
    02:00 +6°C° 0 mm 1 m/s 747 mmHg 96%
    03:00 +6°C° 0 mm 1 m/s 747 mmHg 96%
    04:00 +6°C° 0 mm 1 m/s 747 mmHg 96%
    05:00 +6°C° 0 mm 1 m/s 747 mmHg 96%
    06:00 +6°C° 0 mm 1 m/s 747 mmHg 96%
    07:00 +5°C° 0 mm 1 m/s 748 mmHg 96%
    08:00 +5°C° 0 mm 1 m/s 748 mmHg 97%
    09:00 +6°C° 0 mm 1 m/s 748 mmHg 95%
    10:00 +7°C° 0 mm 1 m/s 749 mmHg 93%
    11:00 +8°C° 0 mm 1 m/s 749 mmHg 91%
    12:00 +8°C° 0 mm 1 m/s 749 mmHg 90%
    13:00 +7°C° 0 mm 0 m/s 750 mmHg 90%
    14:00 +8°C° 0 mm 0 m/s 750 mmHg 89%
    15:00 +8°C° 0 mm 1 m/s 750 mmHg 91%
    16:00 +8°C° 0 mm 1 m/s 751 mmHg 93%
    17:00 +7°C° 0 mm 1 m/s 751 mmHg 95%
    18:00 +7°C° 0 mm 1 m/s 752 mmHg 95%
    19:00 +7°C° 0 mm 1 m/s 752 mmHg 95%
    20:00 +8°C° 0 mm 1 m/s 753 mmHg 95%
    21:00 +7°C° 0.3 mm 2 m/s 753 mmHg 95%
    22:00 +7°C° 0.3 mm 3 m/s 754 mmHg 94%
    23:00 +7°C° 0.3 mm 3 m/s 755 mmHg 94%

    Amanhã, 20 Janeiro, Domingo

    Tempo Temperatura Precipitação Vento Pressão Humidade
    00:00 +6°C° 1 mm 5 m/s 756 mmHg 91%
    01:00 +5°C° 1 mm 6 m/s 756 mmHg 88%
    02:00 +5°C° 1 mm 8 m/s 757 mmHg 86%
    03:00 +4°C° 0.1 mm 7 m/s 758 mmHg 84%
    04:00 +4°C° 0.1 mm 7 m/s 759 mmHg 82%
    05:00 +3°C° 0.1 mm 6 m/s 759 mmHg 80%
    06:00 +3°C° 0 mm 6 m/s 760 mmHg 79%
    07:00 +2°C° 0 mm 5 m/s 761 mmHg 79%
    08:00 +2°C° 0 mm 5 m/s 762 mmHg 78%
    09:00 +3°C° 0 mm 5 m/s 763 mmHg 75%
    10:00 +3°C° 0 mm 5 m/s 764 mmHg 72%
    11:00 +5°C° 0 mm 5 m/s 765 mmHg 69%
    12:00 +5°C° 0 mm 5 m/s 765 mmHg 69%
    13:00 +5°C° 0 mm 4 m/s 765 mmHg 69%
    14:00 +5°C° 0 mm 4 m/s 765 mmHg 68%
    15:00 +4°C° 0 mm 3 m/s 766 mmHg 71%
    16:00 +4°C° 0 mm 2 m/s 766 mmHg 74%
    17:00 +3°C° 0 mm 2 m/s 766 mmHg 77%
    18:00 +3°C° 0 mm 2 m/s 767 mmHg 78%
    19:00 +3°C° 0 mm 1 m/s 767 mmHg 79%
    20:00 +3°C° 0 mm 1 m/s 767 mmHg 80%
    21:00 +3°C° 0 mm 1 m/s 767 mmHg 80%
    22:00 +3°C° 0 mm 1 m/s 767 mmHg 81%
    23:00 +3°C° 0 mm 1 m/s 767 mmHg 81%

    Depois de amanhã, 21 Janeiro, Segunda-feira

    Tempo Temperatura Precipitação Vento Pressão Humidade
    00:00 +2°C° 0 mm 2 m/s 766 mmHg 81%
    01:00 +2°C° 0 mm 2 m/s 765 mmHg 82%
    02:00 +2°C° 0 mm 2 m/s 765 mmHg 82%
    03:00 +1°C° 0 mm 3 m/s 764 mmHg 82%
    04:00 +2°C° 0 mm 3 m/s 763 mmHg 82%
    05:00 +1°C° 0 mm 4 m/s 762 mmHg 82%
    06:00 +2°C° 0 mm 5 m/s 761 mmHg 81%
    07:00 +2°C° 0 mm 5 m/s 760 mmHg 80%
    08:00 +3°C° 0 mm 6 m/s 759 mmHg 79%
    09:00 +3°C° 0 mm 7 m/s 757 mmHg 78%
    10:00 +4°C° 0 mm 8 m/s 755 mmHg 78%
    11:00 +3°C° 0 mm 9 m/s 754 mmHg 77%
    12:00 +3°C° 2.7 mm 9 m/s 752 mmHg 81%
    13:00 +3°C° 2.7 mm 9 m/s 751 mmHg 85%
    14:00 +2°C° 2.7 mm 9 m/s 749 mmHg 89%
    15:00 +1°C° 0.9 mm 8 m/s 749 mmHg 84%
    16:00 +1°C° 0.9 mm 6 m/s 749 mmHg 79%
    17:00 0°C° 0.9 mm 5 m/s 749 mmHg 73%
    18:00 -1°C° 0.4 mm 6 m/s 749 mmHg 74%
    19:00 0°C° 0.4 mm 7 m/s 749 mmHg 74%
    20:00 0°C° 0.4 mm 8 m/s 749 mmHg 74%
    21:00 0°C° 0.4 mm 7 m/s 749 mmHg 73%
    22:00 -1°C° 0.4 mm 7 m/s 749 mmHg 72%
    23:00 -1°C° 0.4 mm 7 m/s 749 mmHg 71%

    22 Janeiro, Terça-feira

    Tempo Temperatura Precipitação Vento Pressão Humidade
    00:00 -1°C° 0.4 mm 7 m/s 749 mmHg 72%
    01:00 -1°C° 0.4 mm 7 m/s 748 mmHg 73%
    02:00 -1°C° 0.4 mm 8 m/s 748 mmHg 74%
    03:00 -2°C° 0.2 mm 7 m/s 748 mmHg 75%
    04:00 -2°C° 0.2 mm 6 m/s 748 mmHg 76%
    05:00 -2°C° 0.2 mm 6 m/s 748 mmHg 77%
    06:00 -2°C° 0.2 mm 6 m/s 748 mmHg 76%
    07:00 -2°C° 0.2 mm 6 m/s 749 mmHg 75%
    08:00 -2°C° 0.2 mm 6 m/s 749 mmHg 74%
    09:00 -2°C° 0.1 mm 6 m/s 749 mmHg 74%
    10:00 -1°C° 0.1 mm 6 m/s 750 mmHg 74%
    11:00 0°C° 0.1 mm 7 m/s 750 mmHg 74%
    12:00 0°C° 0.2 mm 7 m/s 750 mmHg 75%
    13:00 0°C° 0.2 mm 7 m/s 750 mmHg 75%
    14:00 0°C° 0.2 mm 7 m/s 750 mmHg 75%
    15:00 -1°C° 0.1 mm 6 m/s 751 mmHg 76%
    16:00 -1°C° 0.1 mm 6 m/s 751 mmHg 77%
    17:00 0°C° 0.1 mm 5 m/s 751 mmHg 78%
    18:00 0°C° 0.1 mm 5 m/s 752 mmHg 78%
    19:00 0°C° 0.1 mm 4 m/s 752 mmHg 79%
    20:00 0°C° 0.1 mm 4 m/s 753 mmHg 79%
    21:00 0°C° 0.1 mm 4 m/s 753 mmHg 80%
    22:00 +1°C° 0.1 mm 3 m/s 753 mmHg 81%
    23:00 +1°C° 0.1 mm 3 m/s 753 mmHg 81%

    23 Janeiro, Quarta-feira

    Tempo Temperatura Precipitação Vento Pressão Humidade
    00:00 +1°C° 0 mm 3 m/s 753 mmHg 82%
    01:00 +1°C° 0 mm 3 m/s 753 mmHg 82%
    02:00 +1°C° 0 mm 3 m/s 753 mmHg 82%
    03:00 +1°C° 0 mm 3 m/s 753 mmHg 83%
    04:00 +1°C° 0 mm 3 m/s 754 mmHg 83%
    05:00 +1°C° 0 mm 3 m/s 754 mmHg 83%
    06:00 +1°C° 0 mm 3 m/s 754 mmHg 84%
    07:00 +1°C° 0 mm 3 m/s 754 mmHg 84%
    08:00 +1°C° 0 mm 3 m/s 754 mmHg 85%
    09:00 +2°C° 0 mm 3 m/s 755 mmHg 84%
    10:00 +2°C° 0 mm 3 m/s 755 mmHg 83%
    11:00 +3°C° 0 mm 3 m/s 755 mmHg 82%
    12:00 +4°C° 0 mm 3 m/s 755 mmHg 82%
    13:00 +4°C° 0 mm 3 m/s 755 mmHg 82%
    14:00 +4°C° 0 mm 3 m/s 756 mmHg 82%
    15:00 +3°C° 0 mm 3 m/s 756 mmHg 83%
    16:00 +2°C° 0 mm 3 m/s 756 mmHg 85%
    17:00 +2°C° 0 mm 2 m/s 757 mmHg 86%
    18:00 +2°C° 0 mm 2 m/s 757 mmHg 86%
    19:00 +2°C° 0 mm 2 m/s 758 mmHg 87%
    20:00 +2°C° 0 mm 2 m/s 759 mmHg 87%
    21:00 +2°C° 0 mm 2 m/s 759 mmHg 87%
    22:00 +2°C° 0 mm 2 m/s 759 mmHg 87%
    23:00 +4°C° 0 mm 1 m/s 760 mmHg 86%

    24 Janeiro, Quinta-feira

    Tempo Temperatura Precipitação Vento Pressão Humidade
    00:00 +3°C° 0 mm 1 m/s 760 mmHg 87%
    01:00 +3°C° 0 mm 1 m/s 760 mmHg 87%
    02:00 +3°C° 0 mm 1 m/s 760 mmHg 87%
    03:00 +2°C° 0 mm 0 m/s 761 mmHg 87%
    04:00 +1°C° 0 mm 0 m/s 761 mmHg 87%
    05:00 +1°C° 0 mm 0 m/s 761 mmHg 87%
    06:00 +1°C° 0 mm 0 m/s 762 mmHg 87%
    07:00 +1°C° 0 mm 0 m/s 762 mmHg 88%
    08:00 +2°C° 0 mm 1 m/s 762 mmHg 88%
    09:00 +3°C° 0 mm 1 m/s 762 mmHg 88%
    10:00 +4°C° 0 mm 1 m/s 763 mmHg 87%
    11:00 +5°C° 0 mm 1 m/s 763 mmHg 87%
    12:00 +5°C° 0 mm 1 m/s 763 mmHg 89%
    13:00 +5°C° 0 mm 1 m/s 762 mmHg 90%
    14:00 +5°C° 0 mm 1 m/s 762 mmHg 92%
    15:00 +4°C° 0.1 mm 2 m/s 762 mmHg 93%
    16:00 +4°C° 0.1 mm 2 m/s 762 mmHg 94%
    17:00 +5°C° 0.1 mm 2 m/s 762 mmHg 95%
    18:00 +5°C° 0.1 mm 2 m/s 762 mmHg 96%
    19:00 +6°C° 0.1 mm 2 m/s 762 mmHg 96%
    20:00 +6°C° 0.1 mm 2 m/s 763 mmHg 97%
    21:00 +7°C° 0 mm 2 m/s 763 mmHg 98%
    22:00 +7°C° 0 mm 2 m/s 762 mmHg 98%
    23:00 +7°C° 0 mm 2 m/s 762 mmHg 99%
    Mostrar mais